Tracking 35237 objects as of 6-Sep-2026
HD Live streaming from Space Station
objects crossing your sky now

DELTA 1 R/B(2)

Track DELTA 1 R/B(2) now!


NORAD ID: 15206
Int'l Code: 1984-088F
Launch date: August 16, 1984
Source: United States (US)
Launch site: AIR FORCE EASTERN TEST RANGE (AFETR)

Note: This is a ROCKET BODY
Your satellite tracking list
Your tracking list is empty




NASA's NSSDC Master Catalog

Two Line Element Set (TLE):
1 15206U 84088F   26248.55068802  .00000233  00000-0  71322-3 0  9994
2 15206  27.1785  91.3216 7816562 329.0265   2.4569  1.58999368239750
Source of the keplerian elements: AFSPC